Weerstation Grootegast  Weerstation Grootegast


15 daagse weersverwachting Bodø (NO)

  • Overzicht
  • Per uur
  • 15 dagen
  • Extra
  • Vergelijk
  • Kaarten
  • Dagkaart
  • Meer »
  • Info
  • Statistieken
  • Directe link
    Temp 6h Neerslag Wind  
 06:43     19:10    Daglengte: 12:27 Vandaag
08:00
10°
9.6 mm
13
warningclass
14:00
10°
14.6 mm
11
20:00
10°
14.7 mm
10
 06:46     19:06    Daglengte: 12:20 Morgen
02:00
10°
24.7 mm
8
08:00
11°
45.1 mm
16
warningclass
14:00
11°
49.8 mm
17
warningclass
20:00
50.0 mm
18
warningclass
 06:49     19:02    Daglengte: 12:13 Dinsdag 22 Sep
02:00
57.1 mm
14
warningclass
08:00
70.1 mm
13
warningclass
14:00
130.4 mm
10
20:00
89.3 mm
4
 06:53     18:58    Daglengte: 12:05 Woensdag 23 Sep
02:00
 
5
Locatie info
Region: Nordland
Latitude: 67.2860°N
Longitude: 14.3998°E
22 masl
Postcode: 8006
Temp/Neerslag /Baro Onweer/Dauwpunt
    Temp Baro 1h Neerslag Dauwpunt Wind UV Bewolking  
 06:43     19:10    Daglengte: 12:27 Vandaag
06:00
10°
1003.6 hPa 4.5 mm
48%
8.8°
15
Windvlaag: 19.2 m/s
91% warningclass
07:00
11°
1002.7 hPa 3.3 mm
82%
9.4°
14
Windvlaag: 20.3 m/s
86% warningclass
08:00
10°
1003.4 hPa 1.9 mm
82%
6.4°
13
Windvlaag: 19.3 m/s
43% warningclass
09:00
10°
Voelt als: 5.9°
1003.6 hPa 2.4 mm
82%
5.8°
11
Windvlaag: 15.9 m/s
46%
10:00
10°
1003.5 hPa 2.5 mm
82%
6.2°
11
Windvlaag: 14.3 m/s
49%
11:00
10°
Voelt als: 5.3°
1003.5 hPa 2.2 mm
82%
7.1°
12
Windvlaag: 15 m/s
55%
12:00
10°
Voelt als: 5.9°
1003.4 hPa 2.0 mm
82%
6.7°
11
Windvlaag: 16 m/s
38%
13:00
10°
1003.1 hPa 3.2 mm
82%
6.2°
10
Windvlaag: 14.1 m/s
69%
14:00
10°
Voelt als: 5.7°
1002.9 hPa 2.3 mm
82%
6.9°
11
Windvlaag: 15.5 m/s
74%
15:00
10°
Voelt als: 5.6°
1002.7 hPa 2.4 mm
82%
6.9°
12
Windvlaag: 16.7 m/s
82%
16:00
10°
1002.6 hPa 2.5 mm
82%
6.2°
12
Windvlaag: 15.9 m/s
88%
17:00
10°
1002.6 hPa 3.2 mm
82%
6.0°
11
Windvlaag: 14.9 m/s
90%
18:00
10°
Voelt als: 6.0°
1002.3 hPa 3.2 mm
82%
6.0°
11
Windvlaag: 14.3 m/s
90%
19:00
10°
Voelt als: 5.9°
1002.2 hPa 3.4 mm
82%
5.8°
10
Windvlaag: 14 m/s
90%
20:00
10°
Voelt als: 5.9°
1002.1 hPa
82%
5.7°
10
Windvlaag: 13.1 m/s
90%
21:00
10°
Voelt als: 5.9°
1001.7 hPa 4.0 mm
82%
5.9°
10
Windvlaag: 13 m/s
90%
22:00
10°
Voelt als: 5.7°
1001.4 hPa 4.6 mm
82%
6.1°
10
Windvlaag: 13 m/s
90%
23:00
Voelt als: 5.4°
1001.1 hPa 3.6 mm
82%
6.8°
10
Windvlaag: 13.5 m/s
90%
 06:46     19:06    Daglengte: 12:20 Morgen
00:00
Voelt als: 5.5°
1000.5 hPa 3.8 mm
82%
6.8°
10
Windvlaag: 12.4 m/s
90%
01:00
10°
Voelt als: 5.6°
999.7 hPa 4.0 mm
82%
7.8°
10
Windvlaag: 13.3 m/s
91%
02:00
10°
Voelt als: 6.2°
998.4 hPa 4.7 mm
82%
8.3°
8
Windvlaag: 13.2 m/s
91%
03:00
10°
Voelt als: 6.1°
996.6 hPa 5.7 mm
82%
8.6°
8
Windvlaag: 10.3 m/s
91%
04:00
10°
995.1 hPa 6.1 mm
82%
9.0°
10
Windvlaag: 17.4 m/s
91% warningclass
05:00
10°
993.0 hPa 8.0 mm
82%
9.4°
10
Windvlaag: 16 m/s
91%
06:00
11°
991.2 hPa 8.4 mm
82%
10.2°
14
Windvlaag: 19.1 m/s
91% warningclass
07:00
11°
989.6 hPa 8.2 mm
82%
10.3°
16
Windvlaag: 22 m/s
91% warningclass
08:00
11°
988.3 hPa 8.7 mm
82%
10.2°
16
Windvlaag: 23.4 m/s
91% warningclass
09:00
11°
987.3 hPa 9.5 mm
82%
10.2°
16
Windvlaag: 22.2 m/s
91% warningclass
10:00
11°
986.3 hPa 8.5 mm
82%
10.3°
16
Windvlaag: 22.6 m/s
91% warningclass
11:00
12°
985.6 hPa 8.4 mm
82%
10.2°
16
Windvlaag: 22.6 m/s
91% warningclass
12:00
12°
984.7 hPa 8.2 mm
82%
10.0°
16
Windvlaag: 23.2 m/s
90% warningclass
13:00
12°
983.9 hPa 7.7 mm
82%
10.0°
17
Windvlaag: 23.3 m/s
36% warningclass
14:00
11°
983.6 hPa 7.5 mm
82%
9.4°
17
Windvlaag: 24.5 m/s
56% warningclass
15:00
11°
983.6 hPa 10.0 mm
82%
7.0°
19
Windvlaag: 26.9 m/s
65% warningclass
16:00
10°
983.6 hPa 7.5 mm
82%
6.8°
18
Windvlaag: 26.2 m/s
82% warningclass
17:00
10°
Voelt als: 4.6°
984.3 hPa 8.0 mm
82%
5.5°
18
Windvlaag: 26.2 m/s
82% warningclass
18:00
Voelt als: 4.1°
984.7 hPa 7.9 mm
82%
4.9°
19
Windvlaag: 26.6 m/s
82% warningclass
19:00
Voelt als: 3.9°
985.0 hPa 8.3 mm
82%
4.6°
18
Windvlaag: 26 m/s
81% warningclass
20:00
Voelt als: 3.4°
985.8 hPa 8.2 mm
82%
3.9°
18
Windvlaag: 25.5 m/s
78% warningclass
21:00
Voelt als: 3.1°
986.3 hPa 8.3 mm
82%
3.6°
18
Windvlaag: 24.7 m/s
69% warningclass
22:00
Voelt als: 2.8°
987.1 hPa 11.6 mm
82%
3.2°
17
Windvlaag: 23.4 m/s
85% warningclass
23:00
Voelt als: 2.6°
987.4 hPa 11.9 mm
100%
2.3°
16
Windvlaag: 21.8 m/s
73% warningclass
 06:49     19:02    Daglengte: 12:13 Dinsdag 22 Sep
00:00
Voelt als: 2.8°
988.2 hPa 8.6 mm
100%
2.9°
16
Windvlaag: 20.4 m/s
96% warningclass
01:00
Voelt als: 2.8°
988.9 hPa 8.3 mm
100%
2.6°
15
Windvlaag: 20.2 m/s
78% warningclass
02:00
Voelt als: 2.4°
989.7 hPa 8.6 mm
100%
2.2°
14
Windvlaag: 20.6 m/s
84% warningclass
03:00
Voelt als: 2.5°
990.4 hPa 8.7 mm
100%
4.0°
13
Windvlaag: 19.1 m/s
93% warningclass
04:00
Voelt als: 2.6°
991.2 hPa 12.8 mm
100%
2.5°
14
Windvlaag: 19.4 m/s
94% warningclass
05:00
Voelt als: 2.2°
991.9 hPa 12.8 mm
100%
4.1°
13
Windvlaag: 19.5 m/s
84% warningclass
06:00
Voelt als: 2.4°
992.6 hPa 9.5 mm
100%
4.8°
14
Windvlaag: 18.5 m/s
84% warningclass
07:00
Voelt als: 2.8°
993.6 hPa 13.1 mm
100%
2.7°
14
Windvlaag: 18.4 m/s
89% warningclass
08:00
Voelt als: 3.1°
994.7 hPa 13.3 mm
100%
2.6°
13
Windvlaag: 17.7 m/s
86% warningclass
09:00
Voelt als: 2.9°
995.5 hPa 21.4 mm
100%
2.7°
13
Windvlaag: 14.7 m/s
82%
10:00
Voelt als: 3.4°
996.5 hPa 21.4 mm
100%
3.1°
12
Windvlaag: 15 m/s
75%
11:00
Voelt als: 3.5°
997.6 hPa 21.8 mm
100%
3.5°
11
Windvlaag: 14.3 m/s
86%
12:00
Voelt als: 3.9°
998.6 hPa 21.9 mm
100%
3.9°
11
Windvlaag: 12.6 m/s
76%
13:00
Voelt als: 4.3°
999.6 hPa 21.9 mm
100%
4.3°
10
Windvlaag: 11.2 m/s
75%
14:00
Voelt als: 4.8°
1000.6 hPa 22.0 mm
100%
5.0°
10
Windvlaag: 1.5 m/s
73%
15:00
Voelt als: 5.0°
1001.2 hPa 22.0 mm
97%
4.9°
9
Windvlaag: 10 m/s
69%
16:00
Voelt als: 5.1°
1001.7 hPa
95%
4.8°
8
Windvlaag: 8.6 m/s
70%
17:00
Voelt als: 5.2°
1002.1 hPa 22.4 mm
92%
4.5°
7
Windvlaag: 8.4 m/s
66%
18:00
Voelt als: 5.3°
1002.4 hPa 22.4 mm
89%
4.3°
6
Windvlaag: 7.6 m/s
79%
19:00
Voelt als: 5.3°
1002.8 hPa 22.5 mm
87%
4.1°
5
Windvlaag: 7.9 m/s
84%
20:00
Voelt als: 5.4°
1003.1 hPa
80%
3.8°
4
Windvlaag: 1.2 m/s
97%
21:00
Voelt als: 5.5°
1002.4 hPa
31%
3.8°
4
Windvlaag: 7.2 m/s
99%
22:00
Voelt als: 5.3°
1001.6 hPa
23%
3.6°
3
Windvlaag: 5.5 m/s
95%
23:00
Voelt als: 4.8°
1000.8 hPa
21%
3.5°
4
Windvlaag: 6.8 m/s
95%
 06:53     18:58    Daglengte: 12:05 Woensdag 23 Sep
00:00
Voelt als: 4.3°
999.9 hPa
21%
3.4°
4
Windvlaag: 6.3 m/s
100%
01:00
Voelt als: 4.0°
998.8 hPa
30%
3.4°
4
Windvlaag: 6.8 m/s
99%
02:00
Voelt als: 3.5°
997.6 hPa
47%
3.4°
5
Windvlaag: 1.5 m/s
100%
03:00
Voelt als: 3.4°
996.8 hPa 67.1 mm
100%
3.4°
5
Windvlaag: 9.9 m/s
100%
04:00
Voelt als: 4.0°
996.3 hPa 67.1 mm
100%
3.8°
5
Windvlaag: 10.9 m/s
100%
05:00
Voelt als: 4.5°
995.8 hPa 67.2 mm
100%
4.3°
5
Windvlaag: 10.4 m/s
99%
Temp/Neerslag /Baro Onweer/Dauwpunt
    Temp Baro Neerslag Dauwpunt Wind Bewolking  
 06:43     19:10    Daglengte: 12:27 Vandaag
08:00
10°
1003.4 hPa 9.6 mm 6.4°
13
43% warningclass
11:00
10°
Voelt als: 5.3°
1003.5 hPa 7.0 mm 7.1°
12
55%
14:00
10°
Voelt als: 5.7°
1002.9 hPa 7.6 mm 6.9°
11
74%
17:00
10°
1002.6 hPa 8.1 mm 6.0°
11
90%
20:00
10°
Voelt als: 5.9°
1002.1 hPa 6.6 mm 5.7°
10
90%
23:00
Voelt als: 5.4°
1001.1 hPa 12.2 mm 6.8°
10
90%
 06:46     19:06    Daglengte: 12:20 Morgen
02:00
10°
Voelt als: 6.2°
998.4 hPa 12.4 mm 8.3°
8
91%
05:00
10°
993.0 hPa 19.8 mm 9.4°
10
91%
08:00
11°
988.3 hPa 25.3 mm 10.2°
16
91% warningclass
11:00
12°
985.6 hPa 26.4 mm 10.2°
16
91% warningclass
14:00
11°
983.6 hPa 23.4 mm 9.4°
17
56% warningclass
17:00
10°
Voelt als: 4.6°
984.3 hPa 25.5 mm 5.5°
18
82% warningclass
20:00
Voelt als: 3.4°
985.8 hPa 24.4 mm 3.9°
18
78% warningclass
23:00
Voelt als: 2.6°
987.4 hPa 31.7 mm 2.3°
16
73% warningclass
 06:49     19:02    Daglengte: 12:13 Dinsdag 22 Sep
02:00
Voelt als: 2.4°
989.7 hPa 25.4 mm 2.2°
14
84% warningclass
05:00
Voelt als: 2.2°
991.9 hPa 34.2 mm 4.1°
13
84% warningclass
08:00
Voelt als: 3.1°
994.7 hPa 35.8 mm 2.6°
13
86% warningclass
11:00
Voelt als: 3.5°
997.6 hPa 64.5 mm 3.5°
11
86%
14:00
Voelt als: 4.8°
1000.6 hPa 65.8 mm 5.0°
10
73%
17:00
Voelt als: 5.2°
1002.1 hPa 44.4 mm 4.5°
7
66%
20:00
Voelt als: 5.4°
1003.1 hPa 44.8 mm 3.8°
4
97%
23:00
Voelt als: 4.8°
1000.8 hPa   3.5°
4
95%
 06:53     18:58    Daglengte: 12:05 Woensdag 23 Sep
02:00
Voelt als: 3.5°
997.6 hPa   3.4°
5
100%
05:00
Voelt als: 4.5°
995.8 hPa 201.3 mm 4.3°
5
99%
08:00
Voelt als: 6.0°
994.6 hPa 203.1 mm 5.4°
6
98%
11:00
12°
995.7 hPa 76.5 mm 7.5°
6
77%
14:00
13°
995.9 hPa 76.5 mm 8.7°
6
71%
17:00
12°
997.0 hPa 76.6 mm 7.9°
6
76%
20:00
11°
998.2 hPa 77.2 mm 7.2°
5
81%
23:00
10°
999.3 hPa 77.6 mm 6.9°
4
81%
 06:56     18:54    Daglengte: 11:58 Donderdag 24 Sep
02:00
10°
Voelt als: 7.5°
1000.2 hPa 78.0 mm 6.6°
4
81%
05:00
Voelt als: 7.0°
1000.0 hPa 78.2 mm 6.3°
4
82%
08:00
Voelt als: 6.6°
999.8 hPa 78.4 mm 6.1°
4
84%
11:00
10°
999.6 hPa 78.4 mm 6.5°
4
86%
14:00
11°
999.3 hPa 78.4 mm 7.0°
3
87%
17:00
10°
998.7 hPa 81.4 mm 6.9°
3
90%
20:00
Voelt als: 7.1°
998.0 hPa 91.8 mm 6.7°
4
92%
23:00
Voelt als: 6.4°
996.4 hPa 94.9 mm 6.4°
4
92%
 06:59     18:50    Daglengte: 11:51 Vrijdag 25 Sep
02:00
Voelt als: 5.5°
994.8 hPa 97.7 mm 6.1°
5
92%
05:00
10°
Voelt als: 6.9°
995.4 hPa 99.1 mm 6.9°
5
84%
08:00
11°
996.4 hPa 101.0 mm 7.8°
6
76%
11:00
10°
996.2 hPa 106.8 mm 7.9°
6
84%
14:00
10°
996.2 hPa 109.6 mm 8.0°
6
91%
17:00
10°
Voelt als: 7.1°
1000.5 hPa 110.8 mm 6.7°
5
83%
20:00
Voelt als: 6.6°
1004.5 hPa 111.2 mm 5.6°
4
75%
23:00
Voelt als: 5.6°
1007.4 hPa 111.7 mm 5.1°
4
69%
 07:03     18:46    Daglengte: 11:43 Zaterdag 26 Sep
02:00
Voelt als: 4.5°
1010.1 hPa 112.2 mm 4.5°
4
63%
05:00
Voelt als: 4.5°
1010.3 hPa 112.5 mm 4.4°
4
63%
08:00
Voelt als: 4.5°
1010.5 hPa 112.6 mm 4.5°
4
62%
11:00
Voelt als: 6.5°
1010.6 hPa 112.6 mm 5.0°
3
60%
14:00
10°
1010.8 hPa 112.6 mm 5.5°
3
58%
17:00
10°
Voelt als: 7.7°
1010.7 hPa 112.6 mm 5.3°
4
74%
20:00
Voelt als: 6.6°
1010.6 hPa 112.6 mm 5.1°
4
90%
23:00
Voelt als: 6.0°
1010.5 hPa 112.7 mm 5.0°
4
75%
 07:06     18:42    Daglengte: 11:36 Zondag 27 Sep
02:00
Voelt als: 5.5°
1010.3 hPa 112.7 mm 4.9°
3
61%
05:00
Voelt als: 5.4°
1007.9 hPa   5.2°
4
73%
08:00
Voelt als: 5.5°
1005.5 hPa 225.3 mm 5.5°
5
86%
14:00
12°
1004.8 hPa 225.3 mm 7.4°
4
88%
20:00
11°
1004.3 hPa 226.1 mm 6.8°
5
69%
 07:10     18:38    Daglengte: 11:28 Maandag 28 Sep
02:00
10°
1003.2 hPa 227.3 mm 7.0°
4
78%
08:00
10°
1000.6 hPa 227.8 mm 6.6°
6
88%
14:00
13°
1002.9 hPa 230.5 mm 7.8°
4
72%
20:00
11°
1003.7 hPa 243.0 mm 6.7°
4
87%
 07:13     18:33    Daglengte: 11:20 Dinsdag 29 Sep
02:00
Voelt als: 6.9°
1006.7 hPa 252.4 mm 5.9°
4
85%
08:00
Voelt als: 6.5°
1006.3 hPa 254.9 mm 6.0°
4
80%
14:00
Voelt als: 6.7°
1019.5 hPa 255.8 mm 2.7°
4
1%
20:00
Voelt als: 4.7°
1018.6 hPa 255.9 mm 3.2°
5
0%
 07:16     18:29    Daglengte: 11:13 Woensdag 30 Sep
02:00
Voelt als: 4.7°
1013.8 hPa 1.0 mm 4.0°
4
57%
08:00
Voelt als: 4.6°
1013.3 hPa 1.6 mm 4.1°
4
62%
14:00
Voelt als: 6.4°
1012.5 hPa 1.5 mm 4.9°
4
67%
20:00
Voelt als: 5.6°
1011.8 hPa 1.8 mm 5.0°
4
63%
 07:20     18:25    Daglengte: 11:05 Donderdag 01 Okt
02:00
Voelt als: 5.5°
1010.6 hPa 1.7 mm 5.0°
4
68%
08:00
Voelt als: 5.9°
1010.4 hPa 2.1 mm 5.6°
4
78%
14:00
Voelt als: 7.4°
1010.4 hPa 1.3 mm 6.1°
4
76%
20:00
Voelt als: 6.4°
1009.8 hPa 1.9 mm 5.6°
3
69%
 07:23     18:21    Daglengte: 10:58 Vrijdag 02 Okt
02:00
Voelt als: 6.2°
1009.5 hPa 1.5 mm 5.2°
3
58%
08:00
Voelt als: 5.8°
1009.7 hPa 1.4 mm 5.0°
3
62%
14:00
Voelt als: 7.2°
1010.5 hPa 1.4 mm 5.5°
3
66%
20:00
Voelt als: 6.6°
1010.8 hPa 1.2 mm 5.0°
2
64%
 07:27     18:17    Daglengte: 10:50 Zaterdag 03 Okt
02:00
Voelt als: 6.2°
1010.5 hPa 1.2 mm 4.5°
2
62%
08:00
Voelt als: 5.7°
1010.6 hPa 0.8 mm 4.2°
2
54%
14:00
Voelt als: 7.9°
1011.4 hPa 1.0 mm 5.0°
2
48%
20:00
Voelt als: 6.1°
1012.0 hPa 0.9 mm 4.5°
2
53%
 07:30     18:13    Daglengte: 10:43 Zondag 04 Okt
02:00
Voelt als: 5.2°
1012.2 hPa 0.9 mm 4.2°
3
52%
08:00
Voelt als: 5.2°
1012.0 hPa 0.8 mm 4.2°
3
55%
14:00
Voelt als: 7.5°
1012.2 hPa 1.0 mm 5.0°
3
53%
20:00
Voelt als: 6.4°
1012.2 hPa 1.2 mm 4.6°
2
57%
 07:34     18:09    Daglengte: 10:35 Maandag 05 Okt
02:00
Voelt als: 5.7°
1012.1 hPa 1.3 mm 4.1°
2
55%
  CAPE Lifted Index Hail Supercell Tornado SRH 3km CL BTM PRES CL TOP PRES Swiss DWD icon SMHI TS
 06:43     19:10    Daglengte: 12:27 Vandaag
06:00 0 J/kg 5.7 K 0 % 0 % 0 % 0 m²/s² 0 0 6.6 63
07:00 274 J/kg 3.2 K 0 % 0 % 0 % 0 m²/s² 0 0 9.74 81
08:00 116 J/kg 5.2 K 0 % 0 % 0 % 0 m²/s² 0 0 10.96 80
09:00 201 J/kg 5.0 K 0 % 0 % 0 % 0 m²/s² 0 0 7.88 80
10:00 231 J/kg 5.1 K 0 % 0 % 0 % 0 m²/s² 0 0 6.96 80
11:00 247 J/kg 4.9 K 0 % 0 % 0 % 0 m²/s² 0 0 6.58 80
12:00 262 J/kg 5.0 K 0 % 0 % 0 % 0 m²/s² 0 0 7.31 80
13:00 192 J/kg 5.5 K 0 % 0 % 0 % 0 m²/s² 0 0 9.37 80
14:00 86 J/kg 6.7 K 0 % 0 % 0 % 0 m²/s² 0 0 10.27 80
15:00 236 J/kg 5.4 K 0 % 0 % 0 % 0 m²/s² 0 0 8.07 80
16:00 199 J/kg 6.3 K 0 % 0 % 0 % 0 m²/s² 0 0 10.68 80
17:00 136 J/kg 7.2 K 0 % 0 % 0 % 0 m²/s² 0 0 12.63 80
18:00 165 J/kg 7.4 K 0 % 0 % 0 % 0 m²/s² 0 0 9.05 80
19:00 198 J/kg 7.6 K 0 % 0 % 0 % 0 m²/s² 0 0 8.41 80
20:00 96 J/kg 8.8 K 0 % 0 % 0 % 0 m²/s² 0 0 9.28 80
21:00 130 J/kg 8.2 K 0 % 0 % 0 % 0 m²/s² 0 0 8.62 80
22:00 188 J/kg 7.2 K 0 % 0 % 0 % 0 m²/s² 0 0 7.68 80
23:00 71 J/kg 8.0 K 0 % 0 % 0 % 0 m²/s² 0 0 8.45 80
 06:46     19:06    Daglengte: 12:20 Morgen
00:00 46 J/kg 7.7 K 0 % 0 % 0 % 0 m²/s² 0 0 8.06 61
01:00 19 J/kg 7.8 K 0 % 0 % 0 % 0 m²/s² 0 0 8.13 61
02:00 36 J/kg 6.6 K 0 % 0 % 0 % 0 m²/s² 0 0 6.93 63
03:00 13 J/kg 6.2 K 0 % 0 % 0 % 0 m²/s² 0 0 6.47 63
04:00 23 J/kg 6.5 K 0 % 0 % 0 % 0 m²/s² 0 0 6.74 63
05:00 0 J/kg 5.7 K 0 % 0 % 0 % 0 m²/s² 0 0 5.94 63
06:00 41 J/kg 5.3 K 0 % 0 % 0 % 0 m²/s² 0 0 5.51 63
07:00 30 J/kg 5.2 K 0 % 0 % 0 % 0 m²/s² 0 0 5.41 63
08:00 65 J/kg 5.0 K 0 % 0 % 0 % 0 m²/s² 0 0 5.21 63
09:00 64 J/kg 4.7 K 0 % 0 % 0 % 0 m²/s² 0 0 4.85 63
10:00 45 J/kg 2.1 K 0 % 0 % 0 % 0 m²/s² 0 0 2.25 61
11:00 63 J/kg 2.3 K 0 % 0 % 0 % 0 m²/s² 0 0 2.87 61
12:00 128 J/kg 2.4 K 0 % 0 % 0 % 0 m²/s² 0 0 9.12 80
13:00 80 J/kg 4.1 K 0 % 0 % 0 % 0 m²/s² 0 0 14.18 80
14:00 93 J/kg 4.7 K 0 % 0 % 0 % 0 m²/s² 0 0 13.79 80
15:00 98 J/kg 5.3 K 0 % 0 % 0 % 0 m²/s² 0 0 12.62 80
16:00 125 J/kg 5.0 K 0 % 0 % 0 % 0 m²/s² 0 0 8.69 80
17:00 133 J/kg 4.4 K 0 % 0 % 0 % 0 m²/s² 0 0 7.46 80
18:00 120 J/kg 4.3 K 0 % 0 % 0 % 0 m²/s² 0 0 6.61 80
19:00 152 J/kg 3.1 K 0 % 0 % 0 % 0 m²/s² 0 0 3.64 80
20:00 118 J/kg 3.1 K 0 % 0 % 0 % 0 m²/s² 0 0 3.34 80
21:00 87 J/kg 3.2 K 0 % 0 % 0 % 0 m²/s² 0 0 3.38 80
22:00 96 J/kg 3.0 K 0 % 0 % 0 % 0 m²/s² 0 0 3.27 80
23:00 129 J/kg 3.0 K 0 % 0 % 0 % 0 m²/s² 0 0 3.27 80
 06:49     19:02    Daglengte: 12:13 Dinsdag 22 Sep
00:00 176 J/kg 3.0 K 0 % 0 % 0 % 0 m²/s² 0 0 3.3 80
01:00 169 J/kg 2.5 K 0 % 0 % 0 % 0 m²/s² 0 0 2.77 80
02:00 251 J/kg 1.9 K 0 % 0 % 0 % 0 m²/s² 0 0 2.23 80
03:00 175 J/kg 2.2 K 0 % 0 % 0 % 0 m²/s² 0 0 2.47 80
04:00 194 J/kg 2.0 K 0 % 0 % 0 % 0 m²/s² 0 0 2.3 80
05:00 237 J/kg 2.3 K 0 % 0 % 0 % 0 m²/s² 0 0 3.17 80
06:00 229 J/kg 2.3 K 0 % 0 % 0 % 0 m²/s² 0 0 3.14 80
07:00 238 J/kg 3.0 K 0 % 0 % 0 % 0 m²/s² 0 0 4.08 80
08:00 213 J/kg 3.5 K 0 % 0 % 0 % 0 m²/s² 0 0 4.58 80
09:00 204 J/kg 4.1 K 0 % 0 % 0 % 0 m²/s² 0 0 5.33 80
10:00 211 J/kg 4.9 K 0 % 0 % 0 % 0 m²/s² 0 0 6.34 80
11:00 211 J/kg 6.0 K 0 % 0 % 0 % 0 m²/s² 0 0 6.63 80
12:00 223 J/kg 7.4 K 0 % 0 % 0 % 0 m²/s² 0 0 9.02 80
13:00 173 J/kg 8.7 K 0 % 0 % 0 % 0 m²/s² 0 0 11.49 80
14:00 196 J/kg 8.9 K 0 % 0 % 0 % 0 m²/s² 0 0 11 80
15:00 112 J/kg 9.7 K 0 % 0 % 0 % 0 m²/s² 0 0 14.44 80
16:00 145 J/kg 9.2 K 0 % 0 % 0 % 0 m²/s² 0 0 13.58 2
17:00 122 J/kg 10.3 K 0 % 0 % 0 % 0 m²/s² 0 0 14.86 80
18:00 90 J/kg 11.0 K 0 % 0 % 0 % 0 m²/s² 0 0 14.63 80
19:00 38 J/kg 12.4 K 0 % 0 % 0 % 0 m²/s² 0 0 15.34 80
20:00 2 J/kg 13.7 K 0 % 0 % 0 % 0 m²/s² 0 0 15.53 3
21:00 1 J/kg 14.2 K 0 % 0 % 0 % 0 m²/s² 0 0 14.68 3
22:00 0 J/kg 15.3 K 0 % 0 % 0 % 0 m²/s² 0 0 15.75 3
23:00 1 J/kg 16.3 K 0 % 0 % 0 % 0 m²/s² 0 0 16.72 3
 06:53     18:58    Daglengte: 12:05 Woensdag 23 Sep
00:00 0 J/kg 16.5 K 0 % 0 % 0 % 0 m²/s² 0 0 16.86 3
01:00 0 J/kg 15.1 K 0 % 0 % 0 % 0 m²/s² 0 0 15.4 3
02:00 0 J/kg 13.7 K 0 % 0 % 0 % 0 m²/s² 0 0 13.91 3
03:00 0 J/kg 11.7 K 0 % 0 % 0 % 0 m²/s² 0 0 11.94
04:00 0 J/kg 10.0 K 0 % 0 % 0 % 0 m²/s² 0 0 10.3
05:00 0 J/kg 7.8 K 0 % 0 % 0 % 0 m²/s² 0 0 8.04
Temp Baro Wind Neerslag
  EWN Forecast EWN WRFDA DWD ICON FMI HIRLAM MET Norway GFS
 06:43     19:10    Daglengte: 12:27 Vandaag
08:00 10.4° 1003.4 hPa 13.1 m/s 9.6 mm 9.5° 1001.6 hPa 11.1 m/s 25.0 mm 10.5° 1004.5 hPa 12.0 m/s 11.2 mm 10.6° 1002.5 hPa 13.8 m/s 0.0 mm 9.6° 1003.6 hPa 12.9 m/s 9.8° 1003.1 hPa 13.5 m/s
11:00 9.6° 1003.5 hPa 11.8 m/s 7.0 mm 9.4° 1001.7 hPa 11.2 m/s 29.1 mm 9.4° 1004.8 hPa 10.3 m/s 3.8 mm 10.4° 1003.0 hPa 12.5 m/s 0.0 mm 9.1° 1003.5 hPa 11.9 m/s 9.6° 1002.8 hPa 13.4 m/s
14:00 9.8° 1002.9 hPa 11.4 m/s 7.6 mm 9.2° 1000.8 hPa 11.3 m/s 32.6 mm 9.4° 1004.1 hPa 10.9 m/s 3.6 mm 10.4° 1002.4 hPa 13.0 m/s 0.0 mm 9.7° 1003.1 hPa 10.8 m/s 9.9° 1002.3 hPa 15.1 m/s
17:00 10.1° 1002.6 hPa 11.1 m/s 8.1 mm 9.4° 1000.3 hPa 11.5 m/s 35.1 mm 9.4° 1003.3 hPa 10.0 m/s 4.3 mm 10.3° 1003.3 hPa 11.6 m/s 0.0 mm 10.0° 1002.7 hPa 10.7 m/s 9.9° 1001.3 hPa 13.0 m/s
20:00 9.8° 1002.1 hPa 10.1 m/s 6.6 mm 8.2° 1000.1 hPa 9.7 m/s 39.8 mm 9.2° 1002.7 hPa 10.1 m/s 4.7 mm 10.1° 1002.9 hPa 10.6 m/s 0.0 mm 9.8° 1002.2 hPa 9.6 m/s 9.1° 1001.4 hPa 11.3 m/s
23:00 9.4° 1001.1 hPa 10.1 m/s 12.2 mm 8.7° 998.5 hPa 11.9 m/s 56.7 mm 9.3° 1001.7 hPa 10.3 m/s 4.4 mm 9.8° 1002.2 hPa 9.9 m/s 0.0 mm 9.0° 1001.2 hPa 8.8 m/s 8.4° 1000.1 hPa 10.5 m/s
 06:46     19:06    Daglengte: 12:20 Morgen
02:00 9.6° 998.4 hPa 7.9 m/s 12.4 mm 8.3° 996.2 hPa 5.1 m/s 64.3 mm 10.0° 997.2 hPa 7.8 m/s 6.8 mm 9.9° 1000.9 hPa 8.6 m/s 0.0 mm 8.0° 998.9 hPa 6.3 m/s 8.4° 997.5 hPa 5.5 m/s
05:00 10.5° 993.0 hPa 9.8 m/s 19.8 mm 9.6° 990.0 hPa 8.8 m/s 79.1 mm 10.4° 992.3 hPa 9.8 m/s 17.0 mm 11.2° 996.5 hPa 10.9 m/s 0.0 mm 10.0° 993.6 hPa 7.4 m/s 8.3° 991.8 hPa 6.8 m/s
08:00 11.3° 988.3 hPa 16.1 m/s 25.3 mm 11.0° 984.5 hPa 14.9 m/s 102.5 mm 11.2° 988.4 hPa 14.3 m/s 11.7 mm 12.0° 991.4 hPa 15.1 m/s 0.0 mm 11.2° 988.4 hPa 16.9 m/s 10.5° 985.9 hPa 8.5 m/s
11:00 11.5° 985.6 hPa 16.4 m/s 26.4 mm 11.1° 981.6 hPa 15.2 m/s 128.9 mm 11.5° 985.4 hPa 14.7 m/s 8.1 mm 11.9° 989.5 hPa 16.9 m/s 0.0 mm 11.1° 985.7 hPa 16.4 m/s 11.4° 983.1 hPa 18.6 m/s
14:00 11.4° 983.6 hPa 17.3 m/s 23.4 mm 9.8° 980.3 hPa 16.9 m/s 140.8 mm 10.8° 984.2 hPa 16.4 m/s 3.0 mm 11.8° 988.1 hPa 16.1 m/s 0.0 mm 11.4° 982.8 hPa 17.3 m/s 10.4° 982.4 hPa 19.8 m/s
17:00 9.8° 984.3 hPa 18.1 m/s 25.5 mm 7.6° 980.4 hPa 17.4 m/s 143.8 mm 9.4° 985.2 hPa 17.4 m/s 2.4 mm 11.4° 987.0 hPa 17.5 m/s 0.0 mm 9.6° 984.4 hPa 17.7 m/s 8.5° 981.5 hPa 21.9 m/s
20:00 8.9° 985.8 hPa 17.9 m/s 24.4 mm 7.5° 980.1 hPa 19.1 m/s 149.2 mm 8.5° 987.7 hPa 16.0 m/s 3.5 mm 9.3° 989.9 hPa 15.0 m/s 0.0 mm 8.8° 985.9 hPa 17.6 m/s 8.5° 981.3 hPa 23.8 m/s
23:00 8.2° 987.4 hPa 16.1 m/s 31.7 mm 7.6° 982.2 hPa 18.7 m/s 152.8 mm 7.4° 989.8 hPa 13.1 m/s 3.1 mm 8.0° 987.5 hPa 15.7 m/s 7.9° 983.9 hPa 21.4 m/s
 06:49     19:02    Daglengte: 12:13 Dinsdag 22 Sep
02:00 7.8° 989.7 hPa 14.4 m/s 25.4 mm 7.2° 986.2 hPa 15.1 m/s 158.8 mm 7.4° 991.9 hPa 13.2 m/s 4.7 mm 7.5° 989.5 hPa 14.3 m/s 7.8° 988.0 hPa 19.9 m/s
05:00 7.4° 991.9 hPa 12.9 m/s 34.2 mm 7.4° 988.6 hPa 13.7 m/s 171.2 mm 7.2° 994.0 hPa 12.7 m/s 4.1 mm 6.7° 991.7 hPa 12.4 m/s 7.8° 990.4 hPa 17.4 m/s
08:00 8.2° 994.7 hPa 13.4 m/s 35.8 mm 7.4° 991.6 hPa 13.3 m/s 182.5 mm 7.2° 996.2 hPa 11.9 m/s 3.2 mm 8.2° 994.5 hPa 14.1 m/s 7.8° 993.6 hPa 15.6 m/s
11:00 8.2° 997.6 hPa 11.3 m/s 64.5 mm 7.8° 993.8 hPa 10.6 m/s 187.5 mm 7.4° 998.9 hPa 10.7 m/s 3.1 mm 8.7° 997.8 hPa 11.9 m/s 7.7° 995.8 hPa 14.4 m/s
14:00 8.9° 1000.6 hPa 9.5 m/s 65.8 mm 8.1° 996.3 hPa 8.8 m/s 192.8 mm 8.6° 1001.0 hPa 9.5 m/s 2.4 mm 9.2° 1001.1 hPa 9.7 m/s 8.1° 998.3 hPa 11.4 m/s
17:00 8.6° 1002.1 hPa 6.8 m/s 44.4 mm 8.3° 997.2 hPa 6.1 m/s 198.2 mm 8.8° 1002.0 hPa 6.8 m/s 0.7 mm 8.6° 1003.1 hPa 6.9 m/s 8.1° 999.3 hPa 7.6 m/s
20:00 8.1° 1003.1 hPa 4.5 m/s 44.8 mm 7.1° 997.4 hPa 4.7 m/s 200.0 mm 9.0° 1002.0 hPa 4.7 m/s 0.7 mm 8.0° 1005.1 hPa 4.2 m/s 7.6° 999.4 hPa 3.3 m/s
23:00 7.2° 1000.8 hPa 3.7 m/s 0.0 mm 6.4° 995.4 hPa 3.1 m/s 200.1 mm 8.4° 1001.0 hPa 2.6 m/s 0.0 mm 7.1° 1001.7 hPa 4.3 m/s 7.1° 996.8 hPa 4.6 m/s
 06:53     18:58    Daglengte: 12:05 Woensdag 23 Sep
02:00 6.6° 997.6 hPa 4.6 m/s 0.0 mm 6.0° 992.3 hPa 6.5 m/s 200.6 mm 8.7° 998.3 hPa 3.7 m/s 0.0 mm 6.2° 998.2 hPa 4.5 m/s 5.7° 994.6 hPa 6.9 m/s
05:00 7.6° 995.8 hPa 5.4 m/s 201.3 mm 8.7° 988.2 hPa 6.3 m/s 201.3 mm 7.4° 997.1 hPa 5.2 m/s 6.1° 991.8 hPa 8.0 m/s
08:00 9.0° 994.6 hPa 6.0 m/s 203.1 mm 10.7° 985.9 hPa 6.6 m/s 203.1 mm 8.7° 996.0 hPa 5.9 m/s 8.3° 989.8 hPa 7.5 m/s
11:00 11.7° 995.7 hPa 5.9 m/s 76.5 mm 11.8° 996.3 hPa 6.1 m/s 10.4° 988.9 hPa 4.2 m/s 76.5 mm
14:00 13.2° 995.9 hPa 6.4 m/s 76.5 mm 13.3° 996.5 hPa 6.2 m/s 11.8° 989.6 hPa 8.2 m/s 76.5 mm
17:00 12.0° 997.0 hPa 5.9 m/s 76.6 mm 12.2° 997.5 hPa 5.3 m/s 9.9° 991.9 hPa 12.2 m/s 76.6 mm
20:00 10.8° 998.2 hPa 5.0 m/s 77.2 mm 11.0° 998.5 hPa 4.5 m/s 8.8° 995.2 hPa 10.5 m/s 77.2 mm
23:00 10.2° 999.3 hPa 4.5 m/s 77.6 mm 10.3° 999.4 hPa 4.1 m/s 8.2° 997.9 hPa 8.4 m/s 77.6 mm
 06:56     18:54    Daglengte: 11:58 Donderdag 24 Sep
02:00 9.6° 1000.2 hPa 3.9 m/s 78.0 mm 9.7° 1000.3 hPa 3.7 m/s 8.1° 999.5 hPa 6.7 m/s 78.0 mm
05:00 9.1° 1000.0 hPa 3.8 m/s 78.2 mm 9.3° 1000.0 hPa 3.9 m/s 7.1° 1000.0 hPa 3.8 m/s 78.2 mm
08:00 8.8° 999.8 hPa 3.7 m/s 78.4 mm 8.9° 999.7 hPa 4.0 m/s 7.2° 1000.4 hPa 0.4 m/s 78.4 mm
11:00 10.0° 999.6 hPa 3.5 m/s 78.4 mm 10.2° 999.5 hPa 3.5 m/s 7.9° 1000.5 hPa 3.2 m/s 78.4 mm
14:00 11.2° 999.3 hPa 3.3 m/s 78.4 mm 11.5° 999.3 hPa 3.1 m/s 8.2° 999.0 hPa 5.4 m/s 78.4 mm
17:00 10.0° 998.7 hPa 3.5 m/s 81.4 mm 10.5° 999.0 hPa 3.2 m/s 5.0° 995.9 hPa 6.3 m/s 81.4 mm
20:00 9.1° 998.0 hPa 3.6 m/s 91.8 mm 9.5° 998.6 hPa 3.3 m/s 4.5° 991.7 hPa 6.4 m/s 91.8 mm
23:00 8.8° 996.4 hPa 4.2 m/s 94.9 mm 9.0° 997.2 hPa 4.2 m/s 6.1° 987.8 hPa 4.7 m/s 94.9 mm
 06:59     18:50    Daglengte: 11:51 Vrijdag 25 Sep
02:00 8.4° 994.8 hPa 5.1 m/s 97.7 mm 8.5° 995.7 hPa 5.1 m/s 7.1° 984.5 hPa 5.0 m/s 97.7 mm
05:00 9.5° 995.4 hPa 5.1 m/s 99.1 mm 9.8° 996.6 hPa 5.4 m/s 7.0° 982.7 hPa 2.3 m/s 99.1 mm
08:00 10.7° 996.4 hPa 5.5 m/s 101.0 mm 11.0° 997.5 hPa 5.7 m/s 7.3° 984.0 hPa 3.6 m/s 101.0 mm
11:00 10.4° 996.2 hPa 6.4 m/s 106.8 mm 10.8° 996.6 hPa 5.5 m/s 6.6° 990.8 hPa 16.9 m/s 106.8 mm
14:00 10.3° 996.2 hPa 5.7 m/s 109.6 mm 10.6° 995.8 hPa 5.3 m/s 6.6° 1000.6 hPa 10.2 m/s 109.6 mm
17:00 9.5° 1000.5 hPa 4.7 m/s 110.8 mm 9.8° 1000.0 hPa 4.2 m/s 6.1° 1006.1 hPa 9.3 m/s 110.8 mm
20:00 8.8° 1004.5 hPa 3.8 m/s 111.2 mm 9.1° 1004.1 hPa 3.2 m/s 5.4° 1009.2 hPa 10.1 m/s 111.2 mm
23:00 7.9° 1007.4 hPa 3.7 m/s 111.7 mm 8.2° 1006.9 hPa 3.4 m/s 5.0° 1012.4 hPa 7.1 m/s 111.7 mm
 07:03     18:46    Daglengte: 11:43 Zaterdag 26 Sep
02:00 7.0° 1010.1 hPa 3.7 m/s 112.2 mm 7.2° 1009.7 hPa 3.5 m/s 4.8° 1014.0 hPa 5.5 m/s 112.2 mm
05:00 7.0° 1010.3 hPa 3.6 m/s 112.5 mm 7.2° 1009.9 hPa 3.6 m/s 4.6° 1014.4 hPa 3.4 m/s 112.5 mm
08:00 7.0° 1010.5 hPa 3.7 m/s 112.6 mm 7.2° 1010.1 hPa 3.8 m/s 4.7° 1014.9 hPa 2.4 m/s 112.6 mm
11:00 8.6° 1010.6 hPa 3.5 m/s 112.6 mm 8.9° 1010.2 hPa 3.5 m/s 5.0° 1015.5 hPa 2.5 m/s 112.6 mm
14:00 10.2° 1010.8 hPa 3.3 m/s 112.6 mm 10.6° 1010.3 hPa 3.3 m/s 5.9° 1016.2 hPa 3.7 m/s 112.6 mm
17:00 9.6° 1010.7 hPa 3.5 m/s 112.6 mm 9.8° 1010.1 hPa 3.5 m/s 6.4° 1016.6 hPa 3.4 m/s 112.6 mm
20:00 8.8° 1010.6 hPa 3.9 m/s 112.6 mm 9.1° 1010.0 hPa 3.8 m/s 5.9° 1017.6 hPa 4.8 m/s 112.6 mm
23:00 8.2° 1010.5 hPa 3.7 m/s 112.7 mm 8.4° 1009.8 hPa 3.5 m/s 6.0° 1018.9 hPa 5.4 m/s 112.7 mm
 07:06     18:42    Daglengte: 11:36 Zondag 27 Sep
02:00 7.6° 1010.3 hPa 3.3 m/s 112.7 mm 7.8° 1009.5 hPa 3.2 m/s 5.6° 1019.1 hPa 3.8 m/s 112.7 mm
05:00 7.9° 1007.9 hPa 4.0 m/s 112.7 mm 8.2° 1006.9 hPa 4.0 m/s 5.2° 1019.1 hPa 4.0 m/s 112.7 mm
08:00 8.2° 1005.5 hPa 4.6 m/s 112.7 mm 8.5° 1004.3 hPa 4.7 m/s 5.3° 1019.1 hPa 3.6 m/s 112.7 mm
14:00 12.0° 1004.8 hPa 4.3 m/s 112.7 mm 12.5° 1003.7 hPa 4.3 m/s 6.7° 1017.2 hPa 4.1 m/s 112.7 mm
20:00 10.6° 1004.3 hPa 4.8 m/s 113.3 mm 11.0° 1003.3 hPa 5.0 m/s 6.2° 1015.3 hPa 2.9 m/s 113.3 mm
 07:10     18:38    Daglengte: 11:28 Maandag 28 Sep
02:00 10.4° 1003.2 hPa 4.4 m/s 113.8 mm 10.7° 1002.2 hPa 4.6 m/s 6.9° 1013.9 hPa 2.4 m/s 113.8 mm
08:00 10.3° 1000.6 hPa 5.7 m/s 113.9 mm 10.5° 999.5 hPa 6.1 m/s 7.9° 1013.0 hPa 1.2 m/s 113.9 mm
14:00 12.8° 1002.9 hPa 4.5 m/s 116.0 mm 13.3° 1002.1 hPa 4.8 m/s 7.7° 1011.6 hPa 0.9 m/s 116.0 mm
20:00 10.7° 1003.7 hPa 4.3 m/s 123.5 mm 11.0° 1003.0 hPa 4.5 m/s 7.7° 1011.1 hPa 1.7 m/s 123.5 mm
 07:13     18:33    Daglengte: 11:20 Dinsdag 29 Sep
02:00 9.2° 1006.7 hPa 4.4 m/s 127.0 mm